Weather History for San Antonio Stinson, TX

Change the Weather History Date:

Wednesday, December 5, 2012

  Actual Average Record
Temperature  
Mean Temperature 62 °F -  
Max Temperature 75 °F 63 °F 80 °F (2007)
Min Temperature 46 °F 43 °F 33 °F (1996)
Degree Days  
Heating Degree Days 4    
Growing Degree Days 12 (Base 50)    
Moisture  
Dew Point 35 °F    
Average Humidity 44    
Maximum Humidity 77    
Minimum Humidity 14    
Precipitation  
Precipitation 0.00 in - - ()
Sea Level Pressure  
Sea Level Pressure 30.15 in    
Wind  
Wind Speed 4 mph (North)    
Max Wind Speed 7 mph    
Max Gust Speed -    
Visibility 10 miles    
Events      
Averages and records for this station are not official NWS values.
T = Trace of Precipitation, MM = Missing Value Source: NWS Daily Summary

Daily Weather History Graph

Daily Weather History Graph

Search for Another Location

Airport:

Trip Planner

Search our weather history database for the weather conditions in past years. The results will help you decide how hot, cold, wet, or windy it might be!

Date:

Astronomy

Dec. 05, 2012 Rise Set
Actual Time 7:14 AM CST 5:35 PM CST
Civil Twilight 6:48 AM CST 6:01 PM CST
Nautical Twilight 6:18 AM CST 6:30 PM CST
Astronomical Twilight 5:49 AM CST 6:59 PM CST
Moon No Moon Rise 11:59 AM CST (12/5)
Length of Visible Light 11h 12m
Length of Day
10h 21m
Waning Gibbous, 59% of the Moon is Illuminated
Dec 5
Waning Gibbous
Dec 6
Last Quarter
Dec 13
New
Dec 19
First Quarter
Dec 28
Full

Hourly Weather History & Observations

Time (CST) Temp. Dew Point Humidity Pressure Visibility Wind Dir Wind Speed Gust Speed Precip Events Conditions
12:53 AM 57.9 °F 43.0 °F 58% 30.20 in 10.0 mi North 5.8 mph - N/A   Clear
1:53 AM 57.0 °F 39.0 °F 51% 30.20 in 10.0 mi North 5.8 mph - N/A   Clear
2:53 AM 55.9 °F 36.0 °F 47% 30.20 in 10.0 mi NNE 5.8 mph - N/A   Clear
3:53 AM 54.0 °F 34.0 °F 47% 30.20 in 10.0 mi North 4.6 mph - N/A   Clear
4:53 AM 53.1 °F 32.0 °F 45% 30.22 in 10.0 mi NNW 3.5 mph - N/A   Clear
5:53 AM 52.0 °F 30.0 °F 43% 30.22 in 10.0 mi North 3.5 mph - N/A   Clear
6:53 AM 51.1 °F 30.0 °F 44% 30.23 in 10.0 mi NNW 5.8 mph - N/A   Clear
8:53 AM 57.0 °F 30.9 °F 37% 30.25 in 10.0 mi NNW 5.8 mph - N/A   Clear
9:53 AM 62.1 °F 35.1 °F 37% 30.26 in 10.0 mi North 6.9 mph - N/A   Clear
10:53 AM 64.0 °F 37.0 °F 37% 30.24 in 10.0 mi Variable 4.6 mph - N/A   Clear
11:53 AM 68.0 °F 35.1 °F 30% 30.20 in 10.0 mi NNE 6.9 mph - N/A   Clear
12:53 PM 70.0 °F 36.0 °F 29% 30.16 in 10.0 mi Variable 3.5 mph - N/A   Clear
1:53 PM 72.0 °F 34.0 °F 25% 30.11 in 10.0 mi Calm Calm - N/A   Clear
2:53 PM 73.9 °F 30.0 °F 20% 30.08 in 10.0 mi Calm Calm - N/A   Clear
3:53 PM 75.0 °F 23.0 °F 14% 30.06 in 10.0 mi NNE 4.6 mph - N/A   Clear
4:53 PM 73.0 °F 28.0 °F 19% 30.05 in 10.0 mi Calm Calm - N/A   Clear
5:53 PM 64.0 °F 35.1 °F 34% 30.06 in 10.0 mi Calm Calm - N/A   Clear
6:53 PM 59.0 °F 37.9 °F 46% 30.07 in 10.0 mi Calm Calm - N/A   Clear
7:53 PM 54.0 °F 37.9 °F 55% 30.07 in 10.0 mi Calm Calm - N/A   Clear
8:53 PM 51.1 °F 39.9 °F 66% 30.08 in 10.0 mi Calm Calm - N/A   Clear
9:53 PM 48.9 °F 39.9 °F 71% 30.08 in 10.0 mi Calm Calm - N/A   Clear
10:53 PM 48.9 °F 41.0 °F 74% 30.07 in 10.0 mi Calm Calm - N/A   Clear
11:53 PM 46.9 °F 39.9 °F 77% 30.05 in 10.0 mi Calm Calm - N/A   Clear